User: anonymous   Login
Location: Arapaho Elementary School
(32.9607°N, 96.7625°W)
Time: 02:16:40
(UTC+00:00)
Language:

FENGYUN 1C DEB - Orbit

View from above orbital plane
View from above orbital plane
View from above satellite
View from above satellite

Ground track
Ground track

The orbit data is extracted from the following two-line orbital elements,

1 31855U 99025CJV 22277.59048948  .00083425  00000-0  34138-2 0  9997
2 31855  96.6791  39.4578 0156158 185.0474 174.9195 15.13494212826568
Epoch (UTC): 04 October 2022 14:10:18
Eccentricity: 0.0156158
inclination: 96.6791°
perigee height: 418 km
apogee height: 633 km
right ascension of ascending node: 39.4578°
argument of perigee: 185.0474°
revolutions per day: 15.13494212
mean anomaly at epoch: 174.9195°
orbit number at epoch: 82656

The dashed part of the orbit path shows where the satellite is in the earth's shadow,  

DLR